Wind_Speed
22 20 20 27 28 28 29 29 29 28 27 36 32 34 36 37 37 39 44 45 44 43 42 44 48 51 54 56 58 58 59 53 50 50 49 50 53 52 56 56 57 60 76 75
25 23 30 29 28 30 31 31 28 29 29 40 31 35 34 34 33 34 36 38 39 41 45 47 47 47 48 50 50 54 56 57 54 52 51 55 55 58 55 59 59 57 60 63
26 27 32 31 32 32 33 33 34 38 35 41 39 43 34 36 36 35 37 36 37 39 39 41 44 45 48 51 51 51 50 48 49 49 48 51 57 60 62 58 59 56 56 59
26 32 33 36 32 36 37 35 41 40 43 43 41 52 37 35 38 36 36 39 41 43 42 41 42 44 45 46 48 50 51 50 48 45 46 46 55 61 62 62 62 61 57 57
31 32 36 36 36 39 39 40 43 46 48 51 47 48 51 41 38 32 34 41 45 45 45 46 46 46 45 45 47 48 50 51 52 53 52 53 52 56 61 62 63 62 59 56
32 37 38 37 39 41 43 44 46 48 50 55 48 49 54 48 43 37 36 41 46 46 46 46 44 47 48 47 46 47 48 49 52 54 54 54 55 57 55 53 60 62 61 61
32 33 36 39 41 38 42 43 47 50 50 53 47 54 54 51 46 44 43 40 40 43 46 46 48 44 45 47 48 49 48 54 57 61 61 59 59 60 58 52 59 63 59 59
41 40 37 39 42 44 40 40 45 51 52 51 50 56 52 52 49 47 45 44 43 44 48 48 47 48 43 42 46 45 46 52 54 52 53 54 53 51 50 52 58 61 61 58
44 42 41 39 41 43 41 40 41 48 51 54 53 55 56 54 53 53 51 51 51 51 48 50 48 47 49 46 44 48 50 51 43 41 50 46 47 47 48 51 54 59 61 61
47 51 49 43 46 47 46 48 49 49 52 57 53 54 52 53 55 54 52 52 52 53 53 51 51 51 53 57 50 45 43 41 40 47 49 49 48 52 51 48 45 51 58 62
44 47 48 46 41 43 43 47 50 51 56 58 57 56 53 54 52 52 55 58 60 63 60 57 55 54 51 46 45 40 35 34 47 55 54 56 55 51 45 48 47 46 46 52
42 45 46 43 41 42 41 40 43 46 48 49 51 54 50 52 52 56 56 56 56 54 50 52 47 38 39 40 44 35 33 35 33 47 60 61 59 56 48 45 46 44 43 43
39 42 44 45 44 44 44 44 42 40 41 47 49 51 52 48 50 48 50 41 36 39 42 42 41 51 47 40 42 38 36 37 42 44 45 52 58 60 42 39 37 43 45 42
37 37 37 40 42 43 45 44 40 41 48 46 49 47 41 43 40 30 28 30 34 36 33 34 40 43 44 43 46 40 36 36 38 39 38 39 46 41 41 42 39 36 41 46
36 40 39 40 40 41 42 41 41 44 41 44 35 39 33 26 24 26 29 30 28 29 26 28 31 32 33 40 39 45 39 37 40 42 38 39 44 41 41 44 42 40 41 41
37 38 39 36 37 37 37 36 35 31 30 32 31 26 23 23 20 21 24 27 28 31 29 30 34 30 33 46 51 47 44 40 41 40 39 39 46 46 49 44 45 46 44 43
33 33 34 30 34 35 30 25 27 30 29 28 27 25 24 26 28 28 30 34 34 29 27 25 31 36 39 34 34 42 44 47 42 40 37 38 39 42 42 47 43 46 47 47
28 28 27 21 24 22 22 22 24 24 25 25 26 27 28 30 31 30 34 40 34 33 29 30 31 31 37 41 46 47 48 50 49 48 49 49 46 45 46 50 48 48 51 49
24 22 19 15 17 20 21 23 22 23 19 26 28 30 32 37 41 32 41 46 47 48 47 48 44 41 39 38 39 41 44 57 57 57 59 55 58 58 58 57 55 56 54 59
17 15 16 20 23 21 19 23 22 24 22 27 31 35 38 42 46 45 44 49 51 53 55 56 51 46 45 44 47 48 45 43 50 59 58 53 52 54 56 58 63 62 61 62
16 18 22 24 27 19 19 21 21 23 29 34 40 45 49 50 48 46 44 41 43 48 50 50 46 43 42 42 40 38 39 43 46 51 54 55 54 52 55 58 59 61 62 64
26 26 28 31 25 19 17 19 22 26 32 39 44 47 48 45 42 41 40 39 38 36 35 36 39 41 38 37 38 36 36 39 40 43 45 48 51 55 56 55 54 57 60 62
23 26 25 22 18 18 16 19 25 32 38 44 48 48 41 34 36 39 37 36 39 37 34 37 39 36 34 34 34 32 32 32 33 35 37 39 44 48 55 60 62 64 65 67
20 19 14 12 13 12 18 23 28 36 46 52 49 38 38 44 42 39 38 37 36 40 38 36 34 32 28 31 31 27 27 28 31 33 36 38 41 45 48 51 53 56 57 58
16 11 10 9 7 10 19 26 32 37 47 41 36 34 39 40 36 31 27 26 24 21 24 23 23 23 24 25 25 26 26 26 27 30 36 42 47 47 47 50 57 57 55 54
11 9 6 5 7 13 20 27 35 44 36 31 31 31 33 33 30 25 18 18 13 9 9 15 18 16 20 23 21 18 27 25 20 23 26 27 23 33 33 36 36 37 44 41
Wind_Direction
257 263 264 254 257 262 264 265 267 269 269 267 268 267 269 268 267 265 261 257 254 253 254 257 258 255 259 266 270 276 278 275 265 258 256 249 245 243 246 248 248 249 249 255
259 265 258 263 263 264 265 268 271 265 266 268 265 267 266 269 270 267 266 266 266 265 262 258 256 258 262 261 264 267 269 271 271 268 262 256 250 246 243 245 249 249 251 252
261 264 266 267 267 268 267 272 268 269 261 264 271 265 266 266 270 270 270 270 269 269 266 263 263 263 259 257 256 257 259 260 262 265 262 256 252 251 249 246 246 248 247 251
266 263 269 271 273 274 270 274 273 273 275 275 270 279 272 273 272 270 268 267 267 266 265 261 257 257 256 256 256 256 253 252 252 255 258 258 250 249 251 252 249 248 247 247
267 270 269 274 276 274 278 274 276 279 280 281 278 279 283 272 269 268 269 268 266 267 266 264 264 264 262 260 258 256 255 253 255 257 255 258 253 247 249 253 252 253 251 250
267 269 272 274 272 276 277 278 278 277 277 276 284 284 280 282 283 276 264 260 265 266 269 271 267 266 268 266 264 263 261 260 259 259 261 263 263 257 254 257 255 250 253 254
261 262 268 273 274 274 278 279 280 276 277 281 281 278 280 288 290 285 276 267 266 270 270 272 270 267 265 264 263 260 254 254 255 258 262 263 263 264 261 259 255 254 251 252
267 262 266 266 270 275 269 270 271 278 278 277 276 278 285 288 290 289 286 281 273 267 264 269 271 268 259 261 261 255 251 252 258 247 252 256 255 257 255 254 252 252 252 251
281 282 283 285 285 285 285 281 276 274 277 280 282 284 286 289 290 289 290 288 285 281 275 273 267 262 261 261 256 259 254 251 255 243 238 238 243 246 251 250 254 254 254 255
281 285 284 288 285 287 291 286 280 281 283 281 280 282 283 286 288 291 290 288 286 283 281 278 270 265 268 262 268 257 250 246 247 244 239 243 244 244 249 249 252 251 251 252
278 280 284 281 276 275 273 276 280 282 279 281 284 285 286 287 288 288 286 286 285 284 283 280 276 272 271 266 250 251 246 242 239 235 241 244 246 248 249 253 259 251 249 250
280 282 280 277 279 279 277 272 270 271 277 279 278 281 283 286 288 286 287 285 284 283 278 283 265 260 255 258 255 238 244 251 249 244 232 233 240 247 252 261 266 263 256 250
282 279 280 282 282 281 280 279 278 280 277 276 279 286 291 294 287 289 288 292 294 291 287 271 268 259 259 253 251 246 237 234 242 249 241 238 246 246 248 252 257 261 259 257
282 280 284 284 282 283 281 281 279 274 272 280 279 287 289 285 288 286 290 297 301 301 291 268 266 261 253 253 256 252 234 244 253 254 249 244 239 240 249 245 249 258 262 259
281 283 285 282 280 277 276 276 273 273 281 283 290 291 290 283 277 279 288 290 299 302 300 275 270 247 240 251 248 252 250 251 253 252 251 248 248 252 249 249 246 249 249 257
283 285 283 283 280 277 277 274 276 283 280 285 290 297 277 270 278 291 296 288 289 292 284 279 268 266 249 243 246 250 248 252 251 254 250 253 245 253 249 242 248 243 242 245
286 283 280 281 274 274 278 283 286 285 288 291 296 296 281 281 282 296 295 297 291 287 281 281 270 271 271 267 259 254 254 246 249 251 247 246 250 250 251 244 239 236 237 239
289 287 286 277 276 286 287 289 286 290 295 297 295 291 289 286 285 289 293 292 286 280 279 282 280 272 267 264 260 258 255 247 251 253 257 262 262 258 257 245 248 247 234 235
287 284 284 289 287 293 295 287 286 291 300 299 299 293 291 288 285 285 283 282 285 285 281 283 281 274 268 267 265 262 261 250 250 253 256 259 259 264 262 254 250 250 246 241
283 290 289 290 300 301 288 287 290 290 290 293 296 296 294 292 289 289 285 282 280 280 281 284 284 278 272 267 267 267 266 259 254 253 255 256 255 256 257 255 253 252 251 249
262 248 258 272 293 295 283 296 298 300 306 307 305 303 301 301 302 298 295 289 284 282 281 281 285 285 285 283 278 272 266 260 258 257 257 257 258 255 251 252 252 251 253 254
251 262 266 274 282 293 295 298 299 307 313 309 305 303 306 310 307 300 299 293 288 289 282 284 289 289 288 286 280 278 275 273 269 264 261 259 257 256 256 254 248 245 246 247
263 268 270 271 275 285 299 303 311 312 315 316 316 316 315 313 313 308 299 288 284 284 289 289 285 289 289 288 286 285 282 273 266 265 266 263 260 257 255 254 252 250 249 249
272 265 258 260 273 297 305 315 322 325 327 323 322 319 317 313 311 305 299 289 281 278 283 279 281 288 286 283 283 281 276 274 277 272 268 264 261 256 253 252 252 252 251 250
270 253 244 253 276 311 316 326 328 328 326 320 321 319 320 321 321 314 312 299 291 277 269 269 282 286 285 284 285 284 284 282 277 273 271 269 265 267 270 262 255 254 254 253
244 227 215 238 307 320 321 325 328 332 332 324 323 328 327 327 330 334 319 306 316 310 276 277 290 287 285 288 290 287 280 291 309 308 314 310 292 282 289 263 261 249 241 242
Height
5750 5753 5754 5751 5752 5752 5753 5753 5754 5754 5756 5748 5752 5751 5751 5752 5754 5758 5759 5761 5762 5763 5764 5764 5765 5766 5767 5768 5767 5769 5770 5775 5779 5782 5783 5785 5787 5789 5791 5793 5793 5796 5796 5798
5747 5747 5742 5745 5746 5746 5745 5745 5747 5748 5748 5738 5746 5743 5744 5745 5745 5746 5747 5747 5749 5751 5752 5753 5754 5756 5758 5758 5760 5760 5761 5762 5764 5768 5773 5773 5775 5776 5777 5778 5780 5783 5784 5785
5740 5740 5736 5738 5738 5738 5737 5738 5737 5733 5737 5732 5733 5730 5739 5738 5737 5738 5738 5739 5740 5740 5741 5742 5741 5743 5744 5746 5747 5748 5748 5750 5751 5752 5755 5759 5760 5761 5763 5767 5769 5771 5773 5775
5735 5731 5730 5728 5731 5727 5728 5729 5724 5725 5723 5724 5725 5712 5729 5731 5729 5731 5731 5728 5728 5726 5727 5728 5729 5730 5731 5733 5733 5734 5736 5737 5738 5740 5742 5743 5747 5748 5750 5753 5755 5757 5759 5763
5725 5724 5722 5723 5722 5719 5720 5719 5716 5713 5711 5709 5712 5712 5707 5718 5720 5724 5721 5717 5713 5714 5714 5715 5716 5717 5719 5720 5719 5720 5721 5722 5724 5726 5729 5731 5733 5735 5736 5738 5740 5741 5744 5748
5721 5715 5715 5716 5714 5713 5712 5710 5708 5705 5702 5695 5703 5701 5694 5699 5704 5709 5709 5704 5699 5698 5699 5700 5703 5702 5703 5704 5705 5706 5707 5709 5710 5711 5714 5717 5719 5721 5723 5725 5725 5727 5730 5733
5709 5710 5708 5706 5704 5707 5704 5702 5696 5692 5692 5686 5691 5684 5684 5686 5688 5688 5688 5692 5692 5690 5689 5689 5688 5688 5689 5689 5689 5689 5691 5693 5694 5696 5699 5704 5707 5707 5711 5713 5713 5714 5719 5721
5697 5701 5702 5700 5697 5695 5697 5694 5688 5680 5678 5678 5678 5670 5675 5675 5674 5673 5673 5674 5675 5677 5675 5675 5675 5674 5674 5675 5673 5674 5677 5678 5678 5680 5686 5690 5692 5694 5696 5697 5699 5703 5707 5710
5683 5685 5687 5688 5686 5685 5684 5683 5680 5671 5669 5663 5665 5662 5661 5662 5661 5658 5657 5656 5656 5657 5657 5658 5659 5659 5659 5659 5660 5659 5661 5662 5664 5667 5672 5674 5677 5680 5681 5684 5688 5691 5694 5697
5674 5669 5671 5677 5673 5672 5671 5668 5665 5663 5658 5650 5653 5651 5651 5650 5647 5647 5646 5643 5641 5639 5637 5637 5640 5642 5643 5643 5644 5645 5646 5649 5653 5655 5659 5663 5666 5666 5670 5673 5676 5678 5680 5683
5664 5661 5661 5660 5664 5664 5660 5654 5652 5652 5647 5643 5638 5638 5639 5636 5637 5635 5631 5628 5625 5621 5621 5621 5623 5623 5624 5625 5626 5630 5633 5636 5639 5641 5645 5650 5652 5656 5659 5662 5663 5664 5667 5669
5652 5648 5647 5649 5648 5644 5643 5644 5643 5638 5637 5632 5629 5627 5628 5626 5625 5618 5616 5613 5610 5607 5606 5605 5606 5608 5609 5610 5614 5614 5618 5622 5626 5629 5628 5631 5638 5643 5647 5650 5650 5650 5653 5657
5642 5639 5636 5635 5635 5633 5631 5630 5629 5627 5624 5619 5617 5619 5616 5614 5607 5606 5600 5600 5598 5594 5593 5591 5591 5594 5595 5598 5601 5602 5604 5608 5611 5613 5613 5619 5626 5630 5633 5637 5641 5640 5641 5644
5630 5630 5629 5627 5624 5623 5621 5619 5619 5617 5612 5613 5607 5608 5607 5599 5596 5594 5591 5588 5586 5581 5578 5578 5579 5579 5582 5587 5590 5594 5595 5598 5602 5603 5604 5608 5612 5618 5621 5625 5630 5632 5632 5633
5622 5617 5617 5615 5614 5612 5610 5610 5608 5604 5604 5598 5601 5595 5593 5591 5589 5587 5584 5581 5578 5574 5570 5569 5568 5569 5571 5574 5577 5580 5584 5588 5590 5594 5596 5598 5601 5606 5610 5614 5617 5620 5623 5626
5611 5608 5605 5605 5601 5600 5599 5598 5596 5596 5595 5592 5589 5589 5586 5584 5581 5579 5576 5573 5571 5567 5564 5562 5561 5561 5562 5565 5568 5570 5572 5575 5579 5582 5584 5587 5590 5594 5597 5600 5603 5607 5611 5614
5602 5599 5596 5596 5592 5591 5592 5590 5589 5587 5585 5585 5583 5581 5578 5577 5573 5570 5567 5564 5562 5560 5557 5554 5552 5551 5553 5555 5558 5559 5559 5562 5564 5569 5573 5576 5578 5581 5584 5586 5588 5593 5597 5599
5592 5589 5588 5589 5585 5586 5585 5584 5582 5580 5579 5578 5576 5574 5571 5567 5565 5563 5558 5552 5553 5550 5548 5547 5547 5546 5545 5545 5547 5548 5549 5550 5553 5556 5557 5560 5562 5564 5568 5572 5574 5580 5582 5586
5585 5583 5582 5582 5581 5582 5580 5577 5577 5575 5577 5572 5569 5565 5562 5557 5553 5558 5549 5543 5540 5537 5536 5535 5534 5534 5534 5535 5534 5533 5534 5536 5538 5541 5543 5545 5546 5547 5550 5553 5558 5562 5566 5572
5579 5578 5578 5577 5576 5577 5575 5572 5572 5570 5570 5566 5562 5558 5552 5547 5541 5541 5540 5533 5527 5524 5520 5515 5515 5515 5518 5521 5519 5517 5520 5520 5522 5525 5527 5529 5530 5530 5533 5537 5540 5543 5546 5551
5576 5575 5575 5573 5571 5573 5570 5568 5566 5565 5563 5556 5551 5546 5540 5534 5528 5522 5518 5517 5513 5508 5504 5501 5499 5500 5502 5501 5501 5500 5503 5505 5507 5507 5508 5510 5511 5512 5515 5518 5520 5523 5526 5531
5572 5571 5571 5569 5569 5569 5566 5565 5563 5561 5556 5549 5543 5537 5529 5521 5515 5510 5506 5501 5498 5496 5493 5492 5489 5488 5487 5487 5486 5487 5488 5489 5488 5487 5488 5488 5489 5489 5491 5494 5499 5502 5506 5510
5566 5565 5565 5565 5565 5563 5563 5561 5558 5553 5547 5541 5532 5523 5516 5509 5504 5498 5494 5489 5486 5483 5483 5482 5481 5479 5477 5475 5473 5474 5475 5473 5472 5472 5472 5472 5471 5471 5471 5472 5474 5477 5481 5486
5559 5559 5559 5561 5561 5560 5558 5556 5552 5546 5537 5527 5519 5512 5506 5498 5491 5484 5478 5475 5474 5473 5474 5472 5472 5471 5470 5467 5465 5465 5464 5462 5460 5459 5457 5457 5454 5453 5451 5450 5453 5456 5460 5464
5554 5555 5557 5558 5558 5558 5554 5550 5546 5542 5533 5523 5514 5506 5498 5488 5481 5473 5468 5464 5462 5461 5462 5464 5465 5463 5462 5460 5458 5456 5455 5453 5451 5448 5445 5441 5436 5434 5432 5431 5432 5434 5440 5446
5551 5552 5555 5555 5555 5554 5552 5548 5541 5535 5526 5517 5508 5501 5493 5483 5474 5467 5462 5459 5458 5457 5458 5460 5459 5458 5456 5453 5451 5450 5447 5443 5439 5436 5431 5426 5421 5417 5413 5411 5412 5414 5420 5426